Regional Weather Roundup
Issued by NWS

Home | Current Version | Previous Version | Graphics & Text | Print | Product List | Glossary Off
Versions: 1 2 3 4 5 6 7 8 9 10 11 12 13 14 15 16 17 18 19 20 21 22 23 24 25 26 27 28 29 30 31 32 33 34 35 36 37 38 39 40 41 42 43 44 45 46 47 48 49 50

945
ASUS43 KMKX 051900
RWRWI

WISCONSIN REGIONAL WEATHER ROUNDUP
NATIONAL WEATHER SERVICE MILWAUKEE/SULLIVAN WI
200 PM CDT THU MAY 05 2016

NOTE: "FAIR" INDICATES FEW OR NO CLOUDS BELOW 12,000 FEET WITH NO
SIGNIFICANT WEATHER AND/OR OBSTRUCTIONS TO VISIBILITY.

WIZ001-002-006>008-014>016-023>028-052000-
NORTHWEST WISCONSIN

CITY           SKY/WX    TMP DP  RH WIND       PRES   REMARKS
SUPERIOR ARPT  SUNNY     69  38  32 SW13G21   29.91F
ASHLAND        SUNNY     73  37  27 SW13G20   29.92F
HAYWARD        MOSUNNY   65  29  25 SW9       29.96F
SIREN          PTSUNNY   60  40  47 S7        29.98F
CUMBERLAND     SUNNY     63  30  29 SW9G16    29.99F
RICE LAKE      SUNNY     65  29  25 SW10G16   30.01F
CHETEK         SUNNY     65  33  30 SW8       29.99F
LADYSMITH      SUNNY     65  35  33 S13       30.00F
EAU CLAIRE     NOT AVBL
MENOMONIE      MOSUNNY   67  33  29 W5        30.02F
NEW RICHMOND   LGT RAIN  56  41  56 S9        30.01F
OSCEOLA        PTSUNNY   65  33  30 SW8       30.02F
$$

WIZ003>005-009-010-017-018-052000-
NORTH CENTRAL WISCONSIN

CITY           SKY/WX    TMP DP  RH WIND       PRES   REMARKS
MANITOWISH WTR SUNNY     63  31  30 W9        29.96F
ARBOR VITAE    SUNNY     63  27  25 NW6G16    29.96F
WOODRUFF       SUNNY     63  27  25 NW6G16    29.96F
RHINELANDER    SUNNY     66  27  23 W7        29.97F
EAGLE RIVER    SUNNY     62  22  21 W3        29.96F
LAND O LAKES   SUNNY     64  24  22 W8        29.96F
PHILLIPS       SUNNY     62  34  35 SW9       29.99S
TOMAHAWK       SUNNY     64  28  25 W6        29.99S
MEDFORD        SUNNY     60  34  38 SW5       30.00F
MERRILL        SUNNY     63  32  31 SW7       29.99F
$$

WIZ029-030-035-036-043>047-052000-
CENTRAL WISCONSIN

CITY           SKY/WX    TMP DP  RH WIND       PRES   REMARKS
WAUSAU         SUNNY     64  31  28 W6        29.98F
MOSINEE        SUNNY     63  30  29 NW9       30.01F
MARSHFIELD     SUNNY     64  29  26 W7        30.00F
STEVENS POINT  SUNNY     60  26  26 W6        30.01F
WAUPACA        SUNNY     64  36  34 SW3       30.01F
WAUTOMA        NOT AVBL
WISC RAPIDS    SUNNY     64  28  25 VRB3      30.01F
CAMP DOUGLAS   NOT AVBL
$$

WIZ011>013-019>022-031-037>040-048>050-052000-
NORTHEAST WISCONSIN

CITY           SKY/WX    TMP DP  RH WIND       PRES   REMARKS
ANTIGO         SUNNY     61  31  31 CALM      29.98F
SHAWANO        SUNNY     63  36  36 CALM      29.99F
OCONTO         SUNNY     55  39  54 SE8       29.99F
STURGEON BAY   SUNNY     55  37  50 N6        30.02F
GREEN BAY      SUNNY     61  37  41 VRB3      30.00F
MANITOWOC      NOT AVBL
APPLETON       SUNNY     57  34  41 NW6       29.99F
CLINTONVILLE   SUNNY     61  36  39 CALM      30.00F
OSHKOSH        SUNNY     60  37  42 VRB7      30.00F
$$

WIZ032>034-041-042-053>061-052000-
SOUTHWEST WISCONSIN

CITY           SKY/WX    TMP DP  RH WIND       PRES   REMARKS
LA CROSSE      SUNNY     65  32  29 NW6       30.02F
SPARTA         SUNNY     64  28  25 W3        30.03F
VIROQUA        SUNNY     62  31  30 N3        30.04F
BOSCOBEL       SUNNY     68  33  27 VRB6      30.02F
PRAIRIE DU CHI SUNNY     63  30  28 NW9       30.04F
PLATTEVILLE    SUNNY     61  37  41 N7        30.03F
$$

WIZ056-057-062-063-064-067-068-052000-
SOUTH CENTRAL WISCONSIN

CITY           SKY/WX    TMP DP  RH WIND       PRES   REMARKS
REEDSBURG      SUNNY     61  37  40 NW9       30.01F
BARABOO/DELLS  SUNNY     62  33  33 E6        30.01F
LONE ROCK      NOT AVBL
MINERAL POINT  SUNNY     63  36  36 W6        30.03F
MADISON        SUNNY     62  36  37 N8        30.01F
MIDDLETON      SUNNY     62  36  38 NW5       30.02F
WATERTOWN      MOSUNNY   60  39  45 NW7       30.01F
MONROE         SUNNY     61  36  39 NW5       30.02F
JANESVILLE     SUNNY     63  39  42 N10       30.01F
$$

WIZ051-052-058>065-066-070>072-052000-
SOUTHEAST WISCONSIN

CITY           SKY/WX    TMP DP  RH WIND       PRES   REMARKS
MILWAUKEE      SUNNY     54  40  59 NE10      30.02F
WAUKESHA       SUNNY     59  37  44 N7        30.01F
MILWAUKEE/TIMM SUNNY     61  37  41 NE6       30.01F
RACINE         SUNNY     54  39  57 NE14      30.02F
BURLINGTON     SUNNY     60  38  42 NW10      30.00F
KENOSHA        SUNNY     61  42  49 CALM      30.00F
FOND DU LAC    SUNNY     60  41  49 NE6       30.00F
SHEBOYGAN      SUNNY     57  42  57 E6        30.00F
WEST BEND      SUNNY     59  36  41 CALM      30.00F
JUNEAU         SUNNY     58  38  47 NW8       30.02F
$$

LSZ147-162-052000-
LAKE SUPERIOR

STATION/POSITION TIME  TEMP    WIND        PRES    WAVE
                       AIR SEA DIR/SP/G            HT/PER
                 (UTC) (F)     (DEG/KT/KT) (MB)    (FT/S)
W MID LAKE BUOY  1750   41 37  200/  8/ 10 1014.5F   0
DEVILS ISLAND    1800   49     230/  3/  5 1013.8F
PORT WING        1710   46     300/  7/ 11 1013.9F
SAXON HARBOR     1800   66     270/  9/ 16 1013.2F
$$

LMZ867-665-643>646-052000-
LAKE MICHIGAN

STATION/POSITION TIME  TEMP    WIND        PRES    WAVE
                       AIR SEA DIR/SP/G            HT/PER
                 (UTC) (F)     (DEG/KT/KT) (MB)    (FT/S)
CHAMBERS ISLAND  1800   48      80/  7/  9 1016.3F
N MID LAKE BUOY  1750   39 39  250/  4/  6 1016.6F   1
NORTHPORT PIER   1800   45     330/  3/  4 1016.3F
ALGOMA LAKESHORE 1815          130/  8/  9   N/A
KEWAUNEE LAKESHO 1800   46                 1015.9F
SHEBOYGAN LAKESH 1800   42      50/ 10/ 11 1017.4F
PORT WASHINGTON  1840   46      60/  6/  8 1016.9F
S MID LAKE BUOY  1750   40 40  360/ 14/ 17 1016.1R   4/ 6
KENOSHA   LAKESH 1800   47      30/ 16/ 17 1016.3F
$$

TC  - TEMPERATURE IN CELSIUS
VSB - VISIBILITY IN STATUTE MILES
WCI - WIND CHILL INDEX
HX  - HEAT INDEX





USA.gov is the U.S. government's official web portal to all federal, state and local government web resources and services.